| time (UTC) | temp C | wind direction | speed KPH | gust KPH | rain 1hr cm | rain 24hr cm | rain mn cm | humidity % | barometer mb |
| 20260508145131 | 13 | 226 | 3.2 | 6.4 | 0.00 | 0.00 | 0.00 | 42 | 1017.1 |
| 20260508144628 | 13 | 220 | 3.2 | 8.0 | 0.00 | 0.00 | 0.00 | 47 | 1017.1 |
| 20260508144129 | 13 | 100 | 3.2 | 8.0 | 0.00 | 0.00 | 0.00 | 43 | 1017.0 |
| 20260508143628 | 13 | 220 | 1.6 | 6.4 | 0.00 | 0.00 | 0.00 | 47 | 1017.1 |
| 20260508143128 | 12 | 0 | 1.6 | 6.4 | 0.00 | 0.00 | 0.00 | 43 | 1017.1 |
| 20260508142630 | 12 | 168 | 3.2 | 6.4 | 0.00 | 0.00 | 0.00 | 45 | 1017.1 |
| 20260508142129 | 12 | 350 | 3.2 | 8.0 | 0.00 | 0.00 | 0.00 | 48 | 1017.1 |
| 20260508141630 | 12 | 27 | 3.2 | 8.0 | 0.00 | 0.00 | 0.00 | 45 | 1017.1 |
| 20260508141129 | 12 | 166 | 3.2 | 8.0 | 0.00 | 0.00 | 0.00 | 48 | 1017.2 |
| 20260508140630 | 11 | 129 | 3.2 | 6.4 | 0.00 | 0.00 | 0.00 | 51 | 1017.2 |
| 20260508140129 | 11 | 203 | 3.2 | 6.4 | 0.00 | 0.00 | 0.00 | 52 | 1017.2 |
| 20260508135630 | 11 | 174 | 3.2 | 6.4 | 0.00 | 0.00 | 0.00 | 53 | 1017.3 |
| 20260508135126 | 11 | 87 | 1.6 | 6.4 | 0.00 | 0.00 | 0.00 | 56 | 1017.3 |
| 20260508134627 | 11 | 265 | 1.6 | 6.4 | 0.00 | 0.00 | 0.00 | 56 | 1017.3 |
| 20260508134127 | 10 | 156 | 3.2 | 8.0 | 0.00 | 0.00 | 0.00 | 61 | 1017.2 |
| 20260508133623 | 10 | 145 | 3.2 | 8.0 | 0.00 | 0.00 | 0.00 | 58 | 1017.1 |
| 20260508133124 | 10 | 222 | 3.2 | 8.0 | 0.00 | 0.00 | 0.00 | 60 | 1017.0 |
| 20260508132624 | 9 | 137 | 3.2 | 8.0 | 0.00 | 0.00 | 0.00 | 62 | 1017.0 |
| 20260508132124 | 9 | 151 | 3.2 | 6.4 | 0.00 | 0.00 | 0.00 | 66 | 1017.0 |
| 20260508131624 | 8 | 141 | 3.2 | 6.4 | 0.00 | 0.00 | 0.00 | 67 | 1016.9 |
| 20260508131123 | 8 | 219 | 3.2 | 4.8 | 0.00 | 0.00 | 0.00 | 72 | 1016.9 |
| 20260508130624 | 7 | 190 | 1.6 | 6.4 | 0.00 | 0.00 | 0.00 | 78 | 1016.7 |
| 20260508130125 | 7 | 124 | 3.2 | 6.4 | 0.00 | 0.00 | 0.00 | 80 | 1016.9 |
| 20260508125609 | 6 | 215 | 3.2 | 8.0 | 0.00 | 0.00 | 0.00 | 79 | 1016.7 |
| 20260508125110 | 6 | 266 | 1.6 | 8.0 | 0.00 | 0.00 | 0.00 | 88 | 1016.7 |
| 20260508124610 | 5 | 193 | 1.6 | 3.2 | 0.00 | 0.00 | 0.00 | 97 | 1016.9 |
| 20260508124109 | 5 | 83 | 1.6 | 3.2 | 0.00 | 0.00 | 0.00 | 100 | 1016.7 |
| 20260508123610 | 4 | 78 | 1.6 | 4.8 | 0.00 | 0.00 | 0.00 | 100 | 1016.7 |
| 20260508123109 | 4 | 52 | 1.6 | 4.8 | 0.00 | 0.00 | 0.00 | 99 | 1016.7 |
| 20260508122610 | 3 | 27 | 1.6 | 4.8 | 0.00 | 0.00 | 0.00 | 99 | 1016.7 |
| 20260508122110 | 3 | 0 | 1.6 | 3.2 | 0.00 | 0.00 | 0.00 | 99 | 1016.7 |
| 20260508121609 | 3 | 0 | 1.6 | 3.2 | 0.00 | 0.00 | 0.00 | 99 | 1016.6 |
| 20260508121110 | 2 | 43 | 1.6 | 3.2 | 0.00 | 0.00 | 0.00 | 99 | 1016.6 |
| 20260508120556 | 2 | 45 | 1.6 | 3.2 | 0.00 | 0.00 | 0.00 | 99 | 1016.5 |
| 20260508120055 | 2 | 0 | 0.0 | 3.2 | 0.00 | 0.00 | 0.00 | 99 | 1016.4 |
| 20260508115555 | 2 | 0 | 1.6 | 3.2 | 0.00 | 0.00 | 0.00 | 99 | 1016.4 |
| 20260508115041 | 2 | 35 | 1.6 | 3.2 | 0.00 | 0.00 | 0.00 | 99 | 1016.3 |
| 20260508114540 | 1 | 322 | 1.6 | 4.8 | 0.00 | 0.00 | 0.00 | 99 | 1016.2 |
| 20260508114041 | 1 | 339 | 3.2 | 4.8 | 0.00 | 0.00 | 0.00 | 99 | 1016.2 |
| 20260508113540 | 1 | 359 | 3.2 | 3.2 | 0.00 | 0.00 | 0.00 | 99 | 1016.1 |
| 20260508113041 | 1 | 15 | 1.6 | 3.2 | 0.00 | 0.00 | 0.00 | 99 | 1016.1 |
| 20260508112541 | 1 | 358 | 1.6 | 4.8 | 0.00 | 0.00 | 0.00 | 99 | 1016.0 |
| 20260508112042 | 1 | 317 | 1.6 | 4.8 | 0.00 | 0.00 | 0.00 | 99 | 1016.0 |
| 20260508111541 | 1 | 306 | 1.6 | 3.2 | 0.00 | 0.00 | 0.00 | 99 | 1016.0 |
| 20260508111041 | 1 | 348 | 1.6 | 3.2 | 0.00 | 0.00 | 0.00 | 99 | 1016.0 |
| 20260508110539 | 1 | 9 | 1.6 | 3.2 | 0.00 | 0.00 | 0.00 | 99 | 1016.0 |
| 20260508110026 | 1 | 286 | 1.6 | 3.2 | 0.00 | 0.00 | 0.00 | 99 | 1015.9 |
| 20260508105527 | 1 | 313 | 1.6 | 3.2 | 0.00 | 0.00 | 0.00 | 99 | 1015.9 |
| 20260508105012 | 1 | 293 | 0.0 | 3.2 | 0.00 | 0.00 | 0.00 | 99 | 1015.8 |
| 20260508104511 | 0 | 0 | 0.0 | 1.6 | 0.00 | 0.00 | 0.00 | 99 | 1015.7 |
| 20260508104012 | 1 | 0 | 0.0 | 1.6 | 0.00 | 0.00 | 0.00 | 99 | 1015.7 |
| 20260508103457 | 1 | 0 | 0.0 | 1.6 | 0.00 | 0.00 | 0.00 | 99 | 1015.6 |
| 20260508102956 | 1 | 0 | 0.0 | 1.6 | 0.00 | 0.00 | 0.00 | 99 | 1015.6 |
| 20260508102457 | 1 | 0 | 0.0 | 1.6 | 0.00 | 0.00 | 0.00 | 99 | 1015.4 |
| 20260508101957 | 1 | 0 | 0.0 | 3.2 | 0.00 | 0.00 | 0.00 | 99 | 1015.3 |
| 20260508101457 | 1 | 0 | 0.0 | 3.2 | 0.00 | 0.00 | 0.00 | 99 | 1015.2 |
| 20260508100957 | 1 | 0 | 1.6 | 4.8 | 0.00 | 0.00 | 0.00 | 99 | 1015.1 |
| 20260508100457 | 1 | 258 | 1.6 | 4.8 | 0.00 | 0.00 | 0.00 | 99 | 1015.1 |
| 20260508095943 | 1 | 317 | 1.6 | 4.8 | 0.00 | 0.00 | 0.00 | 99 | 1015.1 |
| 20260508095442 | 1 | 314 | 1.6 | 3.2 | 0.00 | 0.00 | 0.00 | 99 | 1015.2 |
| 20260508094943 | 1 | 301 | 1.6 | 3.2 | 0.00 | 0.00 | 0.00 | 99 | 1015.1 |
| 20260508094443 | 1 | 332 | 1.6 | 3.2 | 0.00 | 0.00 | 0.00 | 99 | 1015.1 |
| 20260508093943 | 2 | 314 | 1.6 | 3.2 | 0.00 | 0.00 | 0.00 | 99 | 1015.1 |
| 20260508093443 | 2 | 311 | 3.2 | 4.8 | 0.00 | 0.00 | 0.00 | 99 | 1015.1 |
| 20260508092943 | 2 | 332 | 3.2 | 4.8 | 0.00 | 0.00 | 0.00 | 99 | 1015.1 |
| 20260508092443 | 2 | 346 | 1.6 | 3.2 | 0.00 | 0.00 | 0.00 | 99 | 1015.1 |
| 20260508091943 | 2 | 0 | 1.6 | 3.2 | 0.00 | 0.00 | 0.00 | 99 | 1015.2 |
| 20260508091443 | 2 | 288 | 1.6 | 3.2 | 0.00 | 0.00 | 0.00 | 99 | 1015.2 |
| 20260508090942 | 2 | 269 | 1.6 | 3.2 | 0.00 | 0.00 | 0.00 | 99 | 1015.1 |
| 20260508090442 | 2 | 289 | 1.6 | 3.2 | 0.00 | 0.00 | 0.00 | 99 | 1015.1 |
| 20260508085942 | 2 | 288 | 1.6 | 3.2 | 0.00 | 0.00 | 0.00 | 99 | 1015.2 |
| 20260508085442 | 2 | 293 | 1.6 | 3.2 | 0.00 | 0.00 | 0.00 | 99 | 1015.2 |
| 20260508084942 | 2 | 306 | 1.6 | 4.8 | 0.00 | 0.00 | 0.00 | 99 | 1015.2 |
| 20260508084442 | 2 | 270 | 1.6 | 4.8 | 0.00 | 0.00 | 0.00 | 99 | 1015.2 |
| 20260508083929 | 2 | 292 | 0.0 | 3.2 | 0.00 | 0.00 | 0.00 | 99 | 1015.2 |
| 20260508083428 | 2 | 0 | 0.0 | 1.6 | 0.00 | 0.00 | 0.00 | 99 | 1015.1 |
| 20260508082929 | 2 | 0 | 1.6 | 3.2 | 0.00 | 0.00 | 0.00 | 99 | 1015.1 |
| 20260508082428 | 2 | 0 | 1.6 | 3.2 | 0.00 | 0.00 | 0.00 | 100 | 1015.0 |
| 20260508081929 | 2 | 248 | 1.6 | 3.2 | 0.00 | 0.00 | 0.00 | 99 | 1015.0 |
| 20260508081429 | 3 | 287 | 3.2 | 6.4 | 0.00 | 0.00 | 0.00 | 99 | 1015.1 |
| 20260508080929 | 3 | 250 | 1.6 | 6.4 | 0.00 | 0.00 | 0.00 | 99 | 1015.0 |
| 20260508080429 | 3 | 305 | 1.6 | 6.4 | 0.00 | 0.00 | 0.00 | 99 | 1015.0 |
| 20260508075930 | 3 | 276 | 0.0 | 4.8 | 0.00 | 0.00 | 0.00 | 99 | 1015.0 |
| 20260508075429 | 3 | 351 | 1.6 | 4.8 | 0.00 | 0.00 | 0.00 | 99 | 1015.1 |
| 20260508074929 | 3 | 0 | 1.6 | 4.8 | 0.00 | 0.00 | 0.00 | 100 | 1015.0 |
| 20260508074415 | 3 | 280 | 3.2 | 4.8 | 0.00 | 0.00 | 0.00 | 100 | 1014.9 |
| 20260508073915 | 3 | 286 | 1.6 | 3.2 | 0.00 | 0.00 | 0.00 | 100 | 1015.0 |
| 20260508073414 | 3 | 0 | 0.0 | 1.6 | 0.00 | 0.00 | 0.00 | 100 | 1014.9 |
| 20260508072915 | 3 | 0 | 0.0 | 3.2 | 0.00 | 0.00 | 0.00 | 100 | 1015.0 |
| 20260508072415 | 3 | 0 | 0.0 | 3.2 | 0.00 | 0.03 | 0.00 | 100 | 1015.0 |
| 20260508071914 | 3 | 0 | 1.6 | 6.4 | 0.00 | 0.03 | 0.00 | 100 | 1015.1 |
| 20260508071415 | 3 | 0 | 1.6 | 6.4 | 0.00 | 0.03 | 0.00 | 100 | 1015.1 |
| 20260508070916 | 3 | 36 | 1.6 | 3.2 | 0.00 | 0.03 | 0.00 | 100 | 1015.1 |
| 20260508070415 | 3 | 4 | 0.0 | 3.2 | 0.00 | 0.03 | 0.00 | 100 | 1015.1 |
| 20260508065915 | 3 | 0 | 0.0 | 0.0 | 0.00 | 0.03 | 0.00 | 99 | 1015.2 |
| 20260508065416 | 3 | 0 | 0.0 | 0.0 | 0.00 | 0.03 | 0.00 | 99 | 1015.1 |
| 20260508064915 | 3 | 0 | 0.0 | 0.0 | 0.00 | 0.03 | 0.00 | 99 | 1015.1 |
| 20260508064416 | 3 | 0 | 0.0 | 0.0 | 0.00 | 0.03 | 0.00 | 99 | 1015.1 |
| 20260508063915 | 4 | 0 | 0.0 | 0.0 | 0.00 | 0.03 | 0.00 | 99 | 1015.1 |
| 20260508063400 | 4 | 0 | 0.0 | 0.0 | 0.00 | 0.03 | 0.00 | 99 | 1015.1 |
| 20260508062901 | 4 | 0 | 0.0 | 0.0 | 0.00 | 0.03 | 0.00 | 99 | 1015.1 |
| 20260508062401 | 4 | 0 | 0.0 | 0.0 | 0.00 | 0.05 | 0.00 | 99 | 1015.2 |
| 20260508061901 | 4 | 0 | 0.0 | 0.0 | 0.00 | 0.08 | 0.00 | 99 | 1015.1 |
| 20260508061401 | 4 | 0 | 0.0 | 0.0 | 0.00 | 0.08 | 0.00 | 99 | 1015.1 |
| 20260508060900 | 5 | 0 | 0.0 | 3.2 | 0.00 | 0.08 | 0.00 | 99 | 1015.0 |
| 20260508060401 | 5 | 0 | 0.0 | 3.2 | 0.00 | 0.08 | 0.00 | 99 | 1015.1 |
| 20260508055901 | 5 | 0 | 0.0 | 0.0 | 0.00 | 0.08 | 0.00 | 98 | 1015.1 |
| 20260508055401 | 5 | 0 | 0.0 | 0.0 | 0.00 | 0.08 | 0.00 | 98 | 1015.2 |
| 20260508054901 | 5 | 0 | 0.0 | 0.0 | 0.00 | 0.08 | 0.00 | 98 | 1015.1 |
| 20260508054347 | 5 | 0 | 0.0 | 0.0 | 0.00 | 0.08 | 0.00 | 98 | 1015.1 |
| 20260508053847 | 5 | 0 | 0.0 | 0.0 | 0.00 | 0.08 | 0.00 | 98 | 1015.1 |
| 20260508053347 | 5 | 0 | 0.0 | 1.6 | 0.00 | 0.08 | 0.00 | 98 | 1015.1 |
| 20260508052847 | 6 | 0 | 0.0 | 1.6 | 0.00 | 0.08 | 0.00 | 98 | 1015.1 |
| 20260508052348 | 6 | 0 | 0.0 | 1.6 | 0.00 | 0.08 | 0.00 | 98 | 1015.1 |
| 20260508051847 | 6 | 0 | 0.0 | 1.6 | 0.00 | 0.08 | 0.00 | 98 | 1015.1 |
| 20260508051348 | 6 | 293 | 0.0 | 3.2 | 0.00 | 0.08 | 0.00 | 98 | 1015.1 |
| 20260508050847 | 6 | 0 | 0.0 | 3.2 | 0.00 | 0.08 | 0.00 | 98 | 1015.1 |
| 20260508050346 | 6 | 284 | 1.6 | 3.2 | 0.00 | 0.08 | 0.00 | 98 | 1015.0 |
| 20260508045846 | 6 | 0 | 1.6 | 3.2 | 0.00 | 0.08 | 0.00 | 98 | 1014.9 |
| 20260508045346 | 6 | 293 | 1.6 | 3.2 | 0.00 | 0.08 | 0.00 | 97 | 1014.9 |
| 20260508044846 | 6 | 287 | 1.6 | 4.8 | 0.00 | 0.08 | 0.00 | 97 | 1014.8 |
| 20260508044346 | 7 | 308 | 1.6 | 6.4 | 0.00 | 0.08 | 0.00 | 97 | 1014.8 |
| 20260508043846 | 7 | 327 | 1.6 | 6.4 | 0.00 | 0.08 | 0.00 | 97 | 1014.9 |
| 20260508043346 | 7 | 324 | 3.2 | 6.4 | 0.00 | 0.08 | 0.00 | 97 | 1014.9 |
| 20260508042845 | 7 | 311 | 3.2 | 8.0 | 0.00 | 0.08 | 0.00 | 97 | 1014.8 |
| 20260508042343 | 7 | 316 | 3.2 | 8.0 | 0.00 | 0.08 | 0.00 | 96 | 1014.8 |
| 20260508041842 | 7 | 331 | 3.2 | 6.4 | 0.00 | 0.08 | 0.00 | 96 | 1014.8 |
| 20260508041343 | 7 | 305 | 3.2 | 6.4 | 0.00 | 0.08 | 0.00 | 96 | 1014.7 |
| 20260508040842 | 7 | 262 | 3.2 | 6.4 | 0.00 | 0.08 | 0.00 | 96 | 1014.7 |
| 20260508040343 | 7 | 318 | 3.2 | 6.4 | 0.00 | 0.08 | 0.00 | 97 | 1014.5 |
| 20260508035843 | 7 | 312 | 3.2 | 8.0 | 0.00 | 0.08 | 0.08 | 97 | 1014.5 |
| 20260508035343 | 7 | 298 | 1.6 | 8.0 | 0.00 | 0.08 | 0.08 | 97 | 1014.6 |
| 20260508034842 | 7 | 313 | 0.0 | 3.2 | 0.00 | 0.08 | 0.08 | 97 | 1014.6 |
| 20260508034343 | 7 | 0 | 1.6 | 4.8 | 0.00 | 0.08 | 0.08 | 97 | 1014.7 |
| 20260508033843 | 7 | 0 | 3.2 | 6.4 | 0.00 | 0.08 | 0.08 | 97 | 1014.8 |
| 20260508033343 | 7 | 302 | 3.2 | 6.4 | 0.00 | 0.08 | 0.08 | 97 | 1014.7 |
| 20260508032844 | 7 | 314 | 3.2 | 6.4 | 0.00 | 0.08 | 0.08 | 97 | 1014.7 |
| 20260508032343 | 7 | 303 | 1.6 | 6.4 | 0.00 | 0.08 | 0.08 | 97 | 1014.7 |
| 20260508031843 | 7 | 0 | 0.0 | 3.2 | 0.00 | 0.08 | 0.08 | 97 | 1014.6 |
| 20260508031343 | 7 | 0 | 0.0 | 3.2 | 0.00 | 0.08 | 0.08 | 97 | 1014.5 |
| 20260508030844 | 7 | 0 | 1.6 | 4.8 | 0.00 | 0.08 | 0.08 | 97 | 1014.5 |
| 20260508030341 | 6 | 302 | 1.6 | 4.8 | 0.00 | 0.08 | 0.08 | 97 | 1014.4 |
| 20260508025841 | 6 | 304 | 0.0 | 3.2 | 0.00 | 0.08 | 0.08 | 97 | 1014.3 |
| 20260508025341 | 6 | 0 | 1.6 | 4.8 | 0.00 | 0.08 | 0.08 | 97 | 1014.1 |
| 20260508024840 | 6 | 294 | 3.2 | 4.8 | 0.00 | 0.08 | 0.08 | 97 | 1014.1 |
| 20260508024341 | 6 | 259 | 3.2 | 4.8 | 0.00 | 0.08 | 0.08 | 97 | 1014.1 |
| 20260508023842 | 6 | 303 | 1.6 | 4.8 | 0.00 | 0.08 | 0.08 | 97 | 1014.1 |
| 20260508023341 | 6 | 242 | 1.6 | 3.2 | 0.00 | 0.08 | 0.08 | 97 | 1014.1 |
| 20260508022841 | 6 | 0 | 1.6 | 3.2 | 0.00 | 0.10 | 0.08 | 97 | 1014.3 |
| 20260508022339 | 6 | 298 | 1.6 | 3.2 | 0.00 | 0.10 | 0.08 | 97 | 1014.3 |
| 20260508021839 | 6 | 277 | 1.6 | 3.2 | 0.00 | 0.10 | 0.08 | 97 | 1014.0 |
| 20260508021338 | 6 | 0 | 1.6 | 3.2 | 0.00 | 0.10 | 0.08 | 96 | 1013.9 |
| 20260508020839 | 6 | 12 | 1.6 | 3.2 | 0.00 | 0.10 | 0.08 | 96 | 1013.8 |
| 20260508020336 | 6 | 279 | 1.6 | 3.2 | 0.00 | 0.10 | 0.08 | 96 | 1013.8 |
| 20260508015835 | 6 | 282 | 1.6 | 3.2 | 0.00 | 0.10 | 0.08 | 95 | 1013.8 |
| 20260508015336 | 7 | 0 | 1.6 | 3.2 | 0.00 | 0.10 | 0.08 | 95 | 1013.7 |
| 20260508014836 | 7 | 299 | 1.6 | 4.8 | 0.00 | 0.10 | 0.08 | 95 | 1013.7 |
| 20260508014336 | 7 | 287 | 1.6 | 4.8 | 0.00 | 0.10 | 0.08 | 94 | 1013.6 |
| 20260508013837 | 7 | 299 | 3.2 | 4.8 | 0.00 | 0.10 | 0.08 | 94 | 1013.5 |
| 20260508013336 | 7 | 280 | 1.6 | 4.8 | 0.00 | 0.10 | 0.08 | 94 | 1013.5 |
| 20260508012837 | 7 | 305 | 1.6 | 4.8 | 0.00 | 0.10 | 0.08 | 94 | 1013.5 |
| 20260508012336 | 7 | 299 | 3.2 | 6.4 | 0.00 | 0.10 | 0.08 | 93 | 1013.4 |
| 20260508011833 | 7 | 292 | 3.2 | 6.4 | 0.00 | 0.13 | 0.08 | 93 | 1013.3 |
| 20260508011334 | 7 | 310 | 3.2 | 4.8 | 0.00 | 0.13 | 0.08 | 92 | 1013.2 |
| 20260508010833 | 7 | 308 | 3.2 | 4.8 | 0.00 | 0.13 | 0.08 | 92 | 1013.1 |
| 20260508010334 | 7 | 0 | 3.2 | 4.8 | 0.00 | 0.13 | 0.08 | 92 | 1013.1 |
| 20260508005833 | 8 | 298 | 3.2 | 4.8 | 0.00 | 0.13 | 0.08 | 90 | 1013.0 |
| 20260508005334 | 8 | 282 | 1.6 | 4.8 | 0.00 | 0.13 | 0.08 | 89 | 1012.8 |
| 20260508004834 | 8 | 289 | 1.6 | 3.2 | 0.00 | 0.13 | 0.08 | 88 | 1012.8 |
| 20260508004334 | 8 | 338 | 1.6 | 4.8 | 0.00 | 0.13 | 0.08 | 88 | 1012.8 |
| 20260508003834 | 9 | 29 | 1.6 | 4.8 | 0.00 | 0.13 | 0.08 | 86 | 1012.8 |
| 20260508003334 | 10 | 304 | 1.6 | 4.8 | 0.00 | 0.13 | 0.08 | 83 | 1012.8 |
| 20260508002831 | 10 | 3 | 3.2 | 6.4 | 0.00 | 0.13 | 0.08 | 81 | 1012.8 |
| 20260508002332 | 10 | 198 | 3.2 | 6.4 | 0.00 | 0.13 | 0.08 | 78 | 1013.0 |
| 20260508001828 | 10 | 311 | 3.2 | 11.3 | 0.00 | 0.13 | 0.08 | 77 | 1013.0 |
| 20260508001329 | 10 | 226 | 4.8 | 11.3 | 0.00 | 0.13 | 0.08 | 77 | 1012.8 |
| 20260508000828 | 10 | 291 | 3.2 | 9.7 | 0.00 | 0.13 | 0.08 | 77 | 1012.8 |
| 20260508000329 | 11 | 293 | 3.2 | 6.4 | 0.00 | 0.13 | 0.08 | 76 | 1012.8 |
| 20260507235829 | 11 | 238 | 3.2 | 6.4 | 0.00 | 0.13 | 0.08 | 76 | 1012.8 |
| 20260507235329 | 11 | 32 | 3.2 | 8.0 | 0.00 | 0.13 | 0.08 | 76 | 1012.8 |
| 20260507234828 | 11 | 0 | 4.8 | 9.7 | 0.00 | 0.15 | 0.08 | 75 | 1013.0 |
| 20260507234329 | 11 | 314 | 4.8 | 9.7 | 0.00 | 0.15 | 0.08 | 75 | 1013.0 |
| 20260507233829 | 11 | 290 | 4.8 | 9.7 | 0.00 | 0.15 | 0.08 | 74 | 1012.8 |
| 20260507233326 | 11 | 254 | 4.8 | 9.7 | 0.00 | 0.15 | 0.08 | 75 | 1013.0 |
| 20260507232827 | 11 | 27 | 4.8 | 9.7 | 0.00 | 0.15 | 0.08 | 74 | 1012.8 |
| 20260507232326 | 11 | 278 | 3.2 | 8.0 | 0.00 | 0.15 | 0.08 | 73 | 1013.0 |
| 20260507231824 | 11 | 359 | 4.8 | 9.7 | 0.00 | 0.15 | 0.08 | 75 | 1012.8 |
| 20260507231323 | 11 | 294 | 4.8 | 9.7 | 0.00 | 0.15 | 0.08 | 75 | 1012.8 |
| 20260507230824 | 11 | 282 | 3.2 | 6.4 | 0.00 | 0.15 | 0.08 | 76 | 1012.8 |
| 20260507230324 | 11 | 286 | 3.2 | 6.4 | 0.00 | 0.15 | 0.08 | 76 | 1012.8 |
| 20260507225824 | 11 | 267 | 3.2 | 8.0 | 0.00 | 0.15 | 0.08 | 76 | 1012.8 |
| 20260507225323 | 11 | 0 | 3.2 | 8.0 | 0.00 | 0.15 | 0.08 | 75 | 1012.7 |
| 20260507224824 | 11 | 294 | 3.2 | 8.0 | 0.00 | 0.15 | 0.08 | 76 | 1012.6 |
| 20260507224325 | 11 | 310 | 3.2 | 8.0 | 0.00 | 0.15 | 0.08 | 76 | 1012.6 |
| 20260507223824 | 11 | 241 | 3.2 | 6.4 | 0.00 | 0.15 | 0.08 | 76 | 1012.6 |
| 20260507223325 | 11 | 267 | 3.2 | 6.4 | 0.00 | 0.15 | 0.08 | 78 | 1012.5 |
| 20260507222824 | 11 | 12 | 3.2 | 6.4 | 0.00 | 0.15 | 0.08 | 79 | 1012.4 |
| 20260507222322 | 11 | 289 | 3.2 | 8.0 | 0.00 | 0.15 | 0.08 | 80 | 1012.5 |
| 20260507221818 | 11 | 288 | 3.2 | 8.0 | 0.00 | 0.15 | 0.08 | 81 | 1012.5 |
| 20260507221319 | 11 | 5 | 3.2 | 6.4 | 0.00 | 0.15 | 0.08 | 81 | 1012.4 |
| 20260507220818 | 11 | 19 | 3.2 | 6.4 | 0.00 | 0.15 | 0.08 | 81 | 1012.3 |
| 20260507220319 | 11 | 38 | 3.2 | 9.7 | 0.00 | 0.15 | 0.08 | 81 | 1012.2 |
| 20260507215819 | 11 | 301 | 3.2 | 11.3 | 0.00 | 0.15 | 0.08 | 81 | 1012.1 |
| 20260507215319 | 11 | 241 | 3.2 | 12.9 | 0.00 | 0.15 | 0.08 | 80 | 1012.1 |
| 20260507214819 | 11 | 176 | 4.8 | 12.9 | 0.00 | 0.15 | 0.08 | 81 | 1012.1 |
| 20260507214319 | 11 | 304 | 4.8 | 12.9 | 0.00 | 0.15 | 0.08 | 81 | 1011.9 |
| 20260507213820 | 11 | 293 | 4.8 | 8.0 | 0.00 | 0.15 | 0.08 | 81 | 1011.9 |
| 20260507213319 | 10 | 269 | 6.4 | 14.5 | 0.00 | 0.15 | 0.08 | 82 | 1011.9 |
| 20260507212820 | 10 | 347 | 6.4 | 16.1 | 0.00 | 0.15 | 0.08 | 82 | 1011.8 |
| 20260507212317 | 10 | 244 | 8.0 | 16.1 | 0.00 | 0.15 | 0.08 | 82 | 1011.8 |
| 20260507211817 | 10 | 316 | 6.4 | 14.5 | 0.00 | 0.15 | 0.08 | 83 | 1011.9 |
| 20260507211316 | 10 | 284 | 6.4 | 16.1 | 0.00 | 0.15 | 0.08 | 85 | 1011.9 |
| 20260507210817 | 10 | 308 | 6.4 | 16.1 | 0.00 | 0.15 | 0.08 | 86 | 1012.0 |
| 20260507210317 | 11 | 104 | 6.4 | 16.1 | 0.00 | 0.15 | 0.08 | 84 | 1011.8 |
| 20260507205818 | 11 | 274 | 8.0 | 16.1 | 0.00 | 0.15 | 0.08 | 84 | 1011.7 |
| 20260507205316 | 11 | 297 | 9.7 | 20.9 | 0.00 | 0.15 | 0.08 | 84 | 1011.7 |
| 20260507204817 | 11 | 322 | 9.7 | 20.9 | 0.00 | 0.15 | 0.08 | 84 | 1011.4 |
| 20260507204318 | 11 | 299 | 8.0 | 14.5 | 0.00 | 0.15 | 0.08 | 84 | 1011.2 |
| 20260507203817 | 12 | 278 | 9.7 | 19.3 | 0.00 | 0.15 | 0.08 | 83 | 1011.1 |
| 20260507203318 | 12 | 284 | 9.7 | 19.3 | 0.00 | 0.15 | 0.08 | 83 | 1011.2 |
| 20260507202817 | 12 | 335 | 8.0 | 17.7 | 0.00 | 0.15 | 0.08 | 82 | 1011.1 |
| 20260507202314 | 12 | 340 | 8.0 | 17.7 | 0.00 | 0.15 | 0.08 | 82 | 1011.0 |
| 20260507201815 | 12 | 300 | 8.0 | 17.7 | 0.00 | 0.15 | 0.08 | 83 | 1011.0 |
| 20260507201314 | 13 | 351 | 6.4 | 16.1 | 0.00 | 0.15 | 0.08 | 82 | 1011.0 |
| 20260507200815 | 13 | 235 | 6.4 | 14.5 | 0.00 | 0.15 | 0.08 | 81 | 1011.0 |
| 20260507200315 | 13 | 267 | 6.4 | 17.7 | 0.00 | 0.15 | 0.08 | 81 | 1010.8 |
| 20260507195815 | 13 | 302 | 6.4 | 17.7 | 0.00 | 0.15 | 0.08 | 82 | 1010.9 |
| 20260507195315 | 13 | 212 | 6.4 | 17.7 | 0.00 | 0.15 | 0.08 | 80 | 1010.9 |
| 20260507194815 | 13 | 163 | 6.4 | 17.7 | 0.00 | 0.15 | 0.08 | 81 | 1011.0 |
| 20260507194315 | 13 | 252 | 8.0 | 16.1 | 0.00 | 0.15 | 0.08 | 80 | 1011.0 |
| 20260507193815 | 13 | 246 | 8.0 | 17.7 | 0.00 | 0.15 | 0.08 | 82 | 1011.0 |
| 20260507193313 | 13 | 327 | 9.7 | 22.5 | 0.00 | 0.15 | 0.08 | 81 | 1010.8 |
| 20260507192812 | 14 | 303 | 11.3 | 22.5 | 0.00 | 0.15 | 0.08 | 81 | 1011.0 |
| 20260507192310 | 15 | 292 | 8.0 | 19.3 | 0.00 | 0.15 | 0.08 | 79 | 1011.0 |
| 20260507191810 | 15 | 303 | 6.4 | 20.9 | 0.00 | 0.15 | 0.08 | 79 | 1011.1 |
| 20260507191310 | 15 | 279 | 6.4 | 20.9 | 0.00 | 0.15 | 0.08 | 78 | 1011.1 |
| 20260507190810 | 15 | 274 | 6.4 | 19.3 | 0.00 | 0.15 | 0.08 | 78 | 1011.0 |
| 20260507190310 | 14 | 336 | 9.7 | 17.7 | 0.00 | 0.15 | 0.08 | 80 | 1011.1 |
| 20260507185810 | 14 | 274 | 9.7 | 19.3 | 0.00 | 0.15 | 0.08 | 80 | 1011.2 |
| 20260507185310 | 14 | 315 | 8.0 | 19.3 | 0.00 | 0.15 | 0.08 | 80 | 1011.2 |
| 20260507184810 | 14 | 206 | 8.0 | 17.7 | 0.00 | 0.15 | 0.08 | 79 | 1011.2 |
| 20260507184311 | 14 | 299 | 8.0 | 14.5 | 0.00 | 0.15 | 0.08 | 81 | 1011.1 |
| 20260507183810 | 14 | 0 | 6.4 | 14.5 | 0.00 | 0.15 | 0.08 | 80 | 1011.1 |
| 20260507183307 | 14 | 204 | 6.4 | 14.5 | 0.00 | 0.15 | 0.08 | 80 | 1011.2 |
| 20260507182808 | 15 | 300 | 6.4 | 14.5 | 0.00 | 0.15 | 0.08 | 80 | 1011.1 |
| 20260507182307 | 15 | 4 | 6.4 | 20.9 | 0.00 | 0.15 | 0.08 | 78 | 1011.0 |
| 20260507181808 | 15 | 145 | 8.0 | 20.9 | 0.00 | 0.15 | 0.08 | 78 | 1011.0 |
| 20260507181307 | 15 | 254 | 6.4 | 11.3 | 0.00 | 0.15 | 0.08 | 78 | 1011.0 |
| 20260507180808 | 15 | 315 | 3.2 | 9.7 | 0.00 | 0.15 | 0.08 | 79 | 1011.0 |
| 20260507180308 | 15 | 253 | 4.8 | 14.5 | 0.00 | 0.15 | 0.08 | 79 | 1011.1 |
| 20260507175808 | 15 | 136 | 4.8 | 14.5 | 0.00 | 0.15 | 0.08 | 82 | 1011.1 |
| 20260507175308 | 15 | 270 | 6.4 | 12.9 | 0.00 | 0.15 | 0.08 | 81 | 1011.0 |
| 20260507174808 | 15 | 268 | 8.0 | 14.5 | 0.00 | 0.15 | 0.08 | 82 | 1011.1 |
| 20260507174309 | 15 | 301 | 6.4 | 14.5 | 0.00 | 0.15 | 0.08 | 82 | 1011.1 |
| 20260507173808 | 15 | 345 | 4.8 | 12.9 | 0.00 | 0.15 | 0.08 | 81 | 1011.0 |
| 20260507173305 | 15 | 255 | 4.8 | 14.5 | 0.00 | 0.15 | 0.08 | 82 | 1010.9 |
| 20260507172806 | 15 | 183 | 8.0 | 14.5 | 0.00 | 0.15 | 0.08 | 83 | 1010.9 |
| 20260507172308 | 15 | 250 | 6.4 | 14.5 | 0.00 | 0.15 | 0.08 | 82 | 1010.9 |
| 20260507171806 | 16 | 316 | 6.4 | 14.5 | 0.00 | 0.15 | 0.08 | 81 | 1010.8 |
| 20260507171305 | 16 | 188 | 6.4 | 14.5 | 0.00 | 0.15 | 0.08 | 80 | 1010.8 |
| 20260507170806 | 17 | 306 | 6.4 | 14.5 | 0.00 | 0.15 | 0.08 | 78 | 1010.8 |
| 20260507170305 | 17 | 288 | 6.4 | 14.5 | 0.00 | 0.15 | 0.08 | 79 | 1010.7 |
| 20260507165806 | 17 | 327 | 4.8 | 12.9 | 0.00 | 0.15 | 0.08 | 79 | 1010.7 |
| 20260507165306 | 16 | 275 | 4.8 | 11.3 | 0.00 | 0.15 | 0.08 | 82 | 1010.6 |
| 20260507164806 | 16 | 299 | 4.8 | 11.3 | 0.00 | 0.15 | 0.08 | 81 | 1010.5 |
| 20260507164307 | 16 | 193 | 4.8 | 11.3 | 0.00 | 0.15 | 0.08 | 83 | 1010.7 |
| 20260507163804 | 16 | 123 | 4.8 | 12.9 | 0.00 | 0.15 | 0.08 | 84 | 1010.7 |
| 20260507163300 | 16 | 200 | 4.8 | 12.9 | 0.00 | 0.15 | 0.08 | 84 | 1010.9 |
| 20260507162801 | 16 | 153 | 4.8 | 11.3 | 0.00 | 0.15 | 0.08 | 86 | 1010.7 |
| 20260507162300 | 16 | 152 | 4.8 | 11.3 | 0.00 | 0.15 | 0.08 | 84 | 1010.8 |
| 20260507161801 | 16 | 162 | 3.2 | 9.7 | 0.00 | 0.15 | 0.08 | 82 | 1010.8 |
| 20260507161300 | 16 | 175 | 3.2 | 8.0 | 0.00 | 0.15 | 0.08 | 83 | 1010.7 |
| 20260507160801 | 16 | 48 | 4.8 | 8.0 | 0.00 | 0.15 | 0.08 | 85 | 1010.5 |
| 20260507160301 | 16 | 142 | 3.2 | 8.0 | 0.00 | 0.15 | 0.08 | 85 | 1010.6 |
| 20260507155801 | 16 | 182 | 3.2 | 8.0 | 0.00 | 0.15 | 0.08 | 86 | 1010.8 |
| 20260507155301 | 16 | 264 | 3.2 | 8.0 | 0.00 | 0.15 | 0.08 | 85 | 1010.9 |
| 20260507154801 | 16 | 181 | 3.2 | 6.4 | 0.00 | 0.18 | 0.08 | 83 | 1010.7 |
| 20260507154259 | 16 | 56 | 4.8 | 11.3 | 0.00 | 0.18 | 0.08 | 85 | 1010.8 |
| 20260507153800 | 16 | 245 | 6.4 | 14.5 | 0.00 | 0.18 | 0.08 | 86 | 1010.7 |
| 20260507153259 | 16 | 313 | 6.4 | 14.5 | 0.00 | 0.18 | 0.08 | 85 | 1010.8 |
| 20260507152800 | 16 | 268 | 4.8 | 11.3 | 0.00 | 0.18 | 0.08 | 86 | 1010.8 |
| 20260507152259 | 16 | 286 | 3.2 | 8.0 | 0.00 | 0.18 | 0.08 | 87 | 1010.7 |
| 20260507151800 | 16 | 243 | 3.2 | 8.0 | 0.00 | 0.18 | 0.08 | 87 | 1010.8 |
| 20260507151300 | 16 | 29 | 3.2 | 6.4 | 0.00 | 0.18 | 0.08 | 90 | 1010.8 |
| 20260507150800 | 16 | 225 | 3.2 | 9.7 | 0.00 | 0.18 | 0.08 | 87 | 1010.7 |
| 20260507150300 | 16 | 174 | 3.2 | 9.7 | 0.00 | 0.18 | 0.08 | 88 | 1010.7 |
| 20260507145800 | 16 | 323 | 3.2 | 6.4 | 0.00 | 0.18 | 0.08 | 90 | 1010.8 |